< < Back
Terminal Aerodrome Forecast


Current Version              Previous Versions:   1  2  3  4  5  6  7  8  9  

Terminal Aerodrome Forecast

249
FTUS42 KFFC 220520
TAFFTY
TAF
KFTY 220520Z 2206/2306 33009KT P6SM SCT030
     FM221000 35007KT P6SM SKC
     FM221400 03006KT P6SM FEW040
     FM222000 33005KT P6SM FEW050=

Latest METAR

627
SAUS70 KWBC 230400 RRN
MTRFTY
METAR KFTY 230353Z 00000KT 10SM CLR 16/12 A3026 RMK AO2 SLP241
T01560122


USA.gov is the U.S. government's official web portal to all federal, state and local government web resources and services.